Location: Il Ritiro
(43.4167°N, 13.1333°E)
Time: 01:44:42
(UTC+00:00)

USA 215 - Pass Details

Date: 05 July 2020
Orbit: 1102 x 1106 km, 123.0° (Epoch: 08 August)

Event Time Altitude Azimuth Distance (km) Brightness Sun altitude
Rises 19:15:05 0° 57° (ENE) 3,923 6.0 -4.4°
Reaches altitude 10° 19:18:00 10° 68° (ENE) 2,962 5.2 -4.9°
Maximum altitude 19:23:28 28° 126° (SE) 1,933 4.0 -5.6°
Drops below altitude 10° 19:28:54 10° 183° (S) 2,949 5.2 -6.4°
Sets 19:31:47 0° 194° (SSW) 3,904 5.9 -6.8°
